{"data":{"norad_id":64219,"intl_designator":"2025-117S","name":"STARLINK-34323","alt_names":[],"object_type":"PAYLOAD","status":"ACTIVE","operator":null,"country":"US","launch_date":"2025-05-31","launch_site_code":"AFWTR","launch_vehicle":null,"mission":null,"orbit_class":"UNKNOWN","rcs_meters":null,"size_class":null,"mass_kg":null,"dimensions":null,"purposes":["comms"],"wikipedia_slug":null,"has_3d_model":false,"image_url":null,"decayed_at":null,"tle_current":{"epoch":"2026-05-25T00:18:48.021120Z","epoch_age_seconds":67870,"freshness":"FRESH","line1":"1 64219U 25117S   26145.01305580  .00020745  00000+0  71003-3 0  9999","line2":"2 64219  53.1582  44.9142 0001047  88.3312 271.7809 15.30225364 56241","mean_motion":15.30225364,"eccentricity":0.0001047,"inclination_deg":53.1582,"raan_deg":44.9142,"arg_perigee_deg":88.3312,"mean_anomaly_deg":271.7809,"bstar":0.00071003,"rev_number":5624,"period_min":94.103785878692,"perigee_km":474.42180010069,"apogee_km":475.8568761659,"semimajor_km":6853.2763381333,"source":"CELESTRAK","updated_at":"2026-05-25T13:38:20.320505Z"}}}